TimePST,TemperatureF,Dew PointF,Humidity,Sea Level PressureIn,VisibilityMPH,Wind Direction,Wind SpeedMPH,Gust SpeedMPH,PrecipitationIn,Events,Conditions,WindDirDegrees,DateUTC
12:55 AM,30.0,28.9,96,30.31,10.0,Calm,Calm,-,N/A,,Clear,0,2013-03-04 08:55:00
12:56 AM,30.2,28.4,93,30.29,10.0,Variable,1.2,-,N/A,,Clear,0,2013-03-04 08:56:00
1:55 AM,29.5,28.9,98,30.29,10.0,Calm,Calm,-,N/A,,Clear,0,2013-03-04 09:55:00
2:58 AM,28.2,27.7,98,30.29,10.0,Calm,Calm,-,N/A,,Clear,0,2013-03-04 10:58:00
4:19 AM,26.6,26.6,100,30.26,2.0,Calm,Calm,-,N/A,,Clear,0,2013-03-04 12:19:00
4:24 AM,26.6,24.8,93,30.26,2.0,SE,2.3,-,N/A,,Clear,140,2013-03-04 12:24:00
4:58 AM,27.9,27.3,98,30.28,10.0,SSW,2.3,-,N/A,,Clear,210,2013-03-04 12:58:00
5:58 AM,27.0,26.4,98,30.25,10.0,East,4.6,-,N/A,,Clear,80,2013-03-04 13:58:00
6:58 AM,26.2,25.9,99,30.25,10.0,SSE,2.3,-,N/A,,Clear,160,2013-03-04 14:58:00
7:55 AM,28.8,28.6,99,30.25,10.0,Calm,Calm,-,N/A,,Clear,0,2013-03-04 15:55:00
8:55 AM,33.1,31.6,94,30.23,10.0,Calm,Calm,-,N/A,,Clear,0,2013-03-04 16:55:00
9:55 AM,39.6,32.0,74,30.22,10.0,Calm,Calm,-,N/A,,Clear,0,2013-03-04 17:55:00
10:55 AM,44.2,30.7,59,30.20,10.0,NNE,4.6,-,N/A,,Clear,30,2013-03-04 18:55:00
11:58 AM,47.5,31.3,53,30.16,10.0,Variable,5.8,-,N/A,,Clear,0,2013-03-04 19:58:00
12:58 PM,48.9,33.3,55,30.13,10.0,North,9.2,-,N/A,,Clear,350,2013-03-04 20:58:00
1:58 PM,50.7,31.5,48,30.10,10.0,North,10.4,-,N/A,,Clear,10,2013-03-04 21:58:00
2:58 PM,52.0,30.9,45,30.06,10.0,NNE,9.2,-,N/A,,Clear,20,2013-03-04 22:58:00
3:58 PM,52.2,32.0,46,30.03,10.0,North,9.2,-,N/A,,Clear,10,2013-03-04 23:58:00
4:58 PM,51.8,31.3,46,30.01,10.0,Variable,5.8,-,N/A,,Clear,0,2013-03-05 00:58:00
5:58 PM,46.9,31.5,55,30.00,10.0,NNE,4.6,-,N/A,,Clear,20,2013-03-05 01:58:00
6:58 PM,42.3,31.6,66,29.98,10.0,NE,3.5,-,N/A,,Clear,40,2013-03-05 02:58:00
7:58 PM,37.4,31.8,80,29.95,10.0,Variable,1.2,-,N/A,,Clear,0,2013-03-05 03:58:00
8:58 PM,35.2,30.6,83,29.94,10.0,East,3.5,-,N/A,,Clear,100,2013-03-05 04:58:00
9:58 PM,32.7,30.0,90,29.94,10.0,SSE,1.2,-,N/A,,Clear,150,2013-03-05 05:58:00
10:58 PM,32.7,30.6,92,29.93,10.0,South,3.5,-,N/A,,Clear,190,2013-03-05 06:58:00
11:58 PM,31.6,29.8,93,29.93,10.0,SSW,2.3,-,N/A,,Scattered Clouds,200,2013-03-05 07:58:00